User: anonymous   Login
Location: Allison Elementary School
(34.0784°N, 117.7317°W)
Time: 02:58:29
(UTC+00:00)
Language:

Cosmos 2112 Rocket - Orbit

View from above orbital plane
View from above orbital plane
View from above satellite
View from above satellite

Ground track
Ground track

The orbit data is extracted from the following two-line orbital elements,

1 21015U 90111B   20018.59605539 +.00000010 +00000-0 +12439-4 0  9998
2 21015 074.0486 202.9627 0022643 235.8218 183.9464 14.35987488621599
Epoch (UTC): 18 January 2020 14:18:19
Eccentricity: 0.0022643
inclination: 74.0486°
perigee height: 755 km
apogee height: 788 km
right ascension of ascending node: 202.9627°
argument of perigee: 235.8218°
revolutions per day: 14.35987488
mean anomaly at epoch: 183.9464°
orbit number at epoch: 62159

The dashed part of the orbit path shows where the satellite is in the earth's shadow,  

DLR